Вернуться в каталог

BusanSat

АктивенНаукаSSO
NORAD 68989·PAYLOAD·🇮🇹 Italy

Запущен May 3, 2026 с Vandenberg Space Force Base

Loading…

Ближайшие Пролёты (ближайшие 24 часа)

TLE

СвежийSource: Space-Track

Эпоха: Sep 13, 2026, 16:29 UTC

1 68989U 26100K   26256.68708014  .00001288  00000-0  13533-3 0  9991
2 68989  97.7265 152.3160 0005486 187.8040 172.3094 14.91136968 19887

Отслеживайте BusanSat в реальном времени с AllMySat

Download on the App Store